Location: Newark
(47.5833°N, 8.1500°E)
Time: 16:25:25
(UTC+00:00)

Vanguard 2 - All Passes

Search period start: 21 October 2020 00:00
Search period end: 31 October 2020 00:00
Orbit: 554 x 2937 km, 32.9° (Epoch: 20 October)

Date Brightness Start Highest point End Pass type
(mag) Time Alt. Az. Time Alt. Az. Time Alt. Az.
21 Oct - 00:21:10 10° WSW 00:37:10 44° SSW 00:49:21 10° SE visible
21 Oct - 02:34:20 10° W 02:46:24 27° SW 02:55:22 10° SSE visible
21 Oct - 18:16:02 10° SSE 18:24:06 16° SE 18:32:47 10° ESE visible
21 Oct - 20:19:05 10° SSW 20:33:17 35° SSE 20:47:51 10° E visible
21 Oct - 22:27:40 10° WSW 22:44:02 47° S 22:58:24 10° ESE visible
22 Oct - 00:39:01 10° W 00:54:42 42° SSW 01:06:41 10° SE visible
22 Oct - 02:52:52 10° W 03:03:33 23° SW 03:11:49 10° S visible
22 Oct - 18:30:59 10° S 18:41:10 21° SE 18:52:28 10° E visible
22 Oct - 20:36:00 10° SW 20:50:44 40° SSE 21:05:53 10° E visible
22 Oct - 22:45:15 10° WSW 23:01:42 48° S 23:16:03 10° ESE visible
23 Oct - 00:56:59 10° W 01:12:09 38° SSW 01:23:52 10° SE visible
23 Oct - 03:11:54 10° W 03:20:34 18° SW 03:27:40 10° S visible
23 Oct - 18:46:50 10° SSW 18:58:19 26° SE 19:11:20 10° E visible
23 Oct - 20:53:08 10° SW 21:08:17 44° SSE 21:23:48 10° E visible
23 Oct - 23:02:55 10° WSW 23:19:20 47° S 23:33:37 10° ESE visible
24 Oct - 01:15:05 10° W 01:29:31 34° SSW 01:40:52 10° SSE visible
24 Oct - 03:32:05 10° WSW 03:37:31 13° SW 03:42:19 10° SSW visible
24 Oct - 17:04:13 10° SE 17:07:18 11° SE 17:10:33 10° ESE visible
24 Oct - 19:03:13 10° SSW 19:15:33 31° SSE 19:29:47 10° E visible
24 Oct - 21:10:28 10° SW 21:25:52 46° S 21:41:38 10° ESE visible
24 Oct - 23:20:42 10° WSW 23:36:57 45° SSW 23:51:04 10° SE visible
25 Oct - 01:33:21 10° W 01:46:47 29° SW 01:57:33 10° SSE visible
25 Oct - 17:17:02 10° SSE 17:24:13 16° SE 17:32:26 10° ESE visible
25 Oct - 19:19:58 10° SSW 19:32:53 36° SSE 19:47:59 10° E visible
25 Oct - 21:27:57 10° WSW 21:43:30 48° S 21:59:21 10° ESE visible
25 Oct - 23:38:34 10° W 23:54:30 43° SSW 00:08:22 10° SE visible
26 Oct - 01:51:55 10° W 02:03:56 24° SW 02:13:53 10° S visible
26 Oct - 17:32:15 10° S 17:41:13 21° SE 17:51:59 10° E visible
26 Oct - 19:36:58 10° SW 19:50:18 40° SSE 20:06:01 10° E visible
26 Oct - 21:45:32 10° WSW 22:01:09 48° S 22:17:00 10° ESE visible
26 Oct - 23:56:31 10° W 00:11:58 39° SSW 00:25:29 10° SE visible
27 Oct - 02:10:58 10° W 02:20:59 19° SW 02:29:36 10° S visible
27 Oct - 17:48:18 10° SSW 17:58:18 26° SE 18:10:47 10° E visible
27 Oct - 19:54:11 10° SW 20:07:47 44° SSE 20:23:55 10° ESE visible
27 Oct - 22:03:13 10° WSW 22:18:48 47° S 22:34:33 10° ESE visible
28 Oct - 00:14:37 10° W 00:29:21 34° SSW 00:42:22 10° SSE night (unlit)
28 Oct - 02:31:07 10° WSW 02:37:57 14° SW 02:44:10 10° SSW visible
28 Oct - 18:04:50 10° SSW 18:15:30 31° SSE 18:29:12 10° E visible
28 Oct - 20:11:34 10° WSW 20:25:22 46° S 20:41:45 10° ESE visible
28 Oct - 22:21:00 10° WSW 22:36:25 45° SSW 22:51:57 10° SE visible
29 Oct - 00:32:55 10° W 00:46:40 29° SW 00:58:57 10° SSE night (unlit)
29 Oct - 16:19:07 10° SSE 16:24:45 15° SE 16:31:24 10° ESE daylight
29 Oct - 18:21:41 10° SSW 18:32:48 35° SSE 18:47:22 10° E visible
29 Oct - 20:29:04 10° WSW 20:42:59 47° S 20:59:28 10° ESE visible
29 Oct - 22:38:52 10° W 22:53:59 42° SSW 23:09:11 10° SE visible
30 Oct - 00:51:32 10° W 01:03:52 24° SW 01:15:05 10° S night (unlit)
30 Oct - 16:34:26 10° S 16:41:44 19° SE 16:50:57 10° E visible
30 Oct - 18:38:47 10° SW 18:50:11 39° SSE 19:05:24 10° E visible
30 Oct - 20:46:40 10° WSW 21:00:38 47° S 21:17:06 10° ESE visible
30 Oct - 22:56:50 10° W 23:11:30 38° SSW 23:26:14 10° SE visible
